Douglas, WY

6:19 AM MDT on July 29, 2017 (GMT -0600)
Converse County

Weather History for KDGW - January, 2014

Change the Weather History Date:

Thursday, January 16, 2014

  Actual Average Record
Temperature  
Mean Temperature 31 °F 25 °F  
Max Temperature 37 °F 39 °F 57 °F (2000)
Min Temperature 24 °F 11 °F -7 °F (2008)
Degree Days  
Heating Degree Days 34 40  
Month to date heating degree days 648 642  
Since 1 July heating degree days 3727 3731  
Cooling Degree Days 0 0  
Month to date cooling degree days 0 0  
Year to date cooling degree days 0 0  
Moisture  
Dew Point 18 °F    
Average Humidity 58    
Maximum Humidity 75    
Minimum Humidity 40    
Precipitation  
Precipitation 0.00 in 0.01 in 0.02 in (2012)
Month to date precipitation 0.19 0.16  
Year to date precipitation 0.19 0.16  
Sea Level Pressure  
Sea Level Pressure 30.30 in    
Wind  
Wind Speed 18 mph (NW)    
Max Wind Speed 35 mph    
Max Gust Speed 45 mph    
Visibility 10 miles    
Events      
T = Trace of Precipitation, MM = Missing Value Source: NWS Daily Summary

Daily Weather History Graph

Daily Weather History Graph

Search for Another Location

Airport or City:

Trip Planner

Search our weather history database for the weather conditions in past years. The results will help you decide how hot, cold, wet, or windy it might be!

Date:

Astronomy

Jan. 16, 2014 Rise Set
Actual Time 7:28 AM MST 4:54 PM MST
Civil Twilight 6:57 AM MST 5:25 PM MST
Nautical Twilight 6:22 AM MST 6:00 PM MST
Astronomical Twilight 5:48 AM MST 6:34 PM MST
Moon 5:50 PM MST (1/16) 7:21 AM MST (1/16)
Length of Visible Light 10h 27m
Length of Day
9h 25m
Full, 100% of the Moon is Illuminated
Jan 16
Full
Jan 23
Last Quarter
Jan 30
New
Feb 6
First Quarter
Feb 14
Full

Hourly Weather History & Observations

Time (MST) Temp. Windchill Dew Point Humidity Pressure Visibility Wind Dir Wind Speed Gust Speed Precip Events Conditions
12:53 AM 30.0 °F 18.7 °F 21.0 °F 69% 30.17 in 10.0 mi NNW 16.1 mph - N/A   Partly Cloudy
1:53 AM 28.9 °F 17.7 °F 18.0 °F 64% 30.22 in 10.0 mi NNW 15.0 mph 21.9 mph N/A   Clear
2:53 AM 26.1 °F 15.6 °F 19.9 °F 78% 30.27 in 10.0 mi West 11.5 mph - N/A   Mostly Cloudy
3:53 AM 27.0 °F 13.9 °F 19.0 °F 72% 30.25 in 10.0 mi NW 18.4 mph 29.9 mph N/A   Clear
4:53 AM 27.0 °F 14.3 °F 18.0 °F 69% 30.26 in 10.0 mi WNW 17.3 mph - N/A   Clear
5:53 AM 27.0 °F 13.2 °F 18.0 °F 69% 30.27 in 10.0 mi West 20.7 mph - N/A   Clear
6:53 AM 27.0 °F 13.5 °F 18.0 °F 69% 30.27 in 10.0 mi WNW 19.6 mph - N/A   Clear
7:53 AM 28.9 °F 15.4 °F 17.1 °F 61% 30.29 in 10.0 mi WNW 21.9 mph 31.1 mph N/A   Scattered Clouds
8:53 AM 30.9 °F 19.1 °F 19.0 °F 61% 30.31 in 10.0 mi WNW 18.4 mph 25.3 mph N/A   Partly Cloudy
9:53 AM 33.1 °F 21.2 °F 18.0 °F 54% 30.32 in 10.0 mi WNW 20.7 mph 31.1 mph N/A   Clear
10:53 AM 35.1 °F 23.0 °F 19.0 °F 52% 30.32 in 10.0 mi WNW 24.2 mph 33.4 mph N/A   Clear
11:53 AM 37.0 °F 24.9 °F 18.0 °F 46% 30.30 in 10.0 mi WNW 27.6 mph 36.8 mph N/A   Partly Cloudy
12:53 PM 36.0 °F 22.2 °F 14.0 °F 41% 30.30 in 10.0 mi NNW 34.5 mph 44.9 mph N/A   Partly Cloudy
1:53 PM 36.0 °F 24.2 °F 15.1 °F 43% 30.30 in 10.0 mi NNW 24.2 mph 39.1 mph N/A   Clear
2:53 PM 34.0 °F 20.3 °F 15.1 °F 46% 30.33 in 10.0 mi NW 29.9 mph 38.0 mph N/A   Clear
3:53 PM 34.0 °F 20.8 °F 16.0 °F 48% 30.33 in 10.0 mi NW 27.6 mph 35.7 mph N/A   Partly Cloudy
4:53 PM 32.0 °F 20.1 °F 17.1 °F 54% 30.35 in 10.0 mi NW 19.6 mph 28.8 mph N/A   Clear
5:53 PM 28.9 °F 21.1 °F 18.0 °F 64% 30.38 in 10.0 mi NW 8.1 mph - N/A   Overcast
6:53 PM 30.0 °F 21.7 °F 19.0 °F 64% 30.38 in 10.0 mi NW 9.2 mph - N/A   Overcast
7:53 PM 28.0 °F 18.6 °F 18.0 °F 66% 30.37 in 10.0 mi NW 10.4 mph - N/A   Overcast
8:53 PM 28.9 °F 19.2 °F 19.0 °F 67% 30.35 in 10.0 mi NW 11.5 mph - N/A   Overcast
9:53 PM 27.0 °F 19.5 °F 18.0 °F 69% 30.34 in 10.0 mi NW 6.9 mph - N/A   Overcast
10:53 PM 25.0 °F 16.3 °F 17.1 °F 72% 30.32 in 10.0 mi NW 8.1 mph - N/A   Mostly Cloudy
11:53 PM 25.0 °F 13.6 °F 17.1 °F 72% 30.27 in 10.0 mi NNW 12.7 mph - N/A   Clear